Wetbulb
66.38 65.39 65.21 65.98 66.17 67.71 68.11 67.76 69.34 69.39 69.88 69.98 69.36 69.50 68.72 65.81 64.10 62.51 60.43 58.67 56.36 56.17
64.51 65.34 65.83 68.46 69.42 68.74 69.44 68.39 68.77 67.98 67.12 67.55 66.10 63.78 63.00 59.13 57.82 59.79 59.49 58.34 56.01 55.67
65.12 65.72 66.60 67.55 67.22 67.25 65.86 63.91 65.91 65.27 65.35 64.16 62.34 59.79 59.13 58.60 58.26 56.65 56.21 54.51 54.61 53.87
64.28 64.39 64.80 64.48 63.27 62.49 63.05 63.08 63.56 62.00 61.59 60.64 58.87 57.79 56.52 55.28 54.03 53.66 53.01 54.00 52.31 53.40
62.96 63.09 62.57 61.59 62.97 62.55 62.55 63.51 62.25 60.26 58.78 57.62 56.43 55.62 54.09 54.23 52.70 51.55 50.17 50.38 48.52 47.94
61.71 61.98 62.03 60.92 61.41 61.34 61.34 60.53 59.26 57.47 55.46 54.71 54.37 53.61 52.78 52.52 51.19 49.88 49.88 49.13 48.07 46.80
60.39 61.79 61.83 59.93 58.64 57.67 56.87 56.25 54.61 53.28 51.74 50.71 50.17 50.18 50.02 50.16 49.41 49.78 48.61 48.41 47.74 46.80
58.79 58.86 59.78 58.43 55.14 53.81 52.46 51.31 50.86 49.44 48.17 47.48 47.70 48.68 48.54 48.77 47.55 46.62 46.75 47.11 47.36 47.90
55.28 56.16 55.73 54.67 52.19 50.25 48.50 47.46 46.96 46.32 45.41 44.75 45.59 45.63 46.89 47.14 47.39 48.66 48.18 47.14 47.07 47.71
54.51 54.10 52.46 51.13 49.11 47.86 46.42 45.43 44.07 43.73 43.77 43.72 44.31 44.20 44.87 46.06 46.01 45.93 46.78 46.65 45.88 45.81
54.91 50.95 49.69 48.49 46.85 45.50 44.19 43.18 42.85 42.96 43.17 43.23 43.84 43.70 43.66 44.94 44.85 45.05 46.11 46.96 46.20 47.77
51.68 48.38 46.42 44.33 43.35 43.47 42.77 42.72 43.05 43.41 42.93 42.50 42.39 42.83 42.90 44.28 44.73 45.36 45.82 47.80 49.43 49.23
49.04 45.84 43.94 43.13 42.62 43.00 42.87 42.33 42.45 42.18 42.57 43.41 42.71 41.86 42.12 44.56 46.62 45.66 45.59 47.14 46.81 42.41
45.62 43.88 43.27 42.76 42.90 42.44 41.64 41.81 42.19 41.71 42.29 42.87 43.41 42.75 41.19 42.17 47.32 46.14 45.53 46.41 46.42 45.44
MSLP
1005.97 1005.41 1005.51 1005.71 1005.45 1005.10 1004.97 1005.00 1005.20 1005.02 1004.78 1004.57 1004.50 1004.50 1004.66 1004.77 1004.99 1005.11 1005.44 1005.69 1006.43 1006.96
1005.76 1005.50 1005.48 1005.37 1005.43 1005.30 1005.28 1005.23 1005.17 1005.06 1004.80 1004.61 1004.75 1004.79 1004.77 1004.96 1005.18 1005.33 1005.70 1006.14 1006.88 1007.10
1005.80 1006.07 1005.90 1005.83 1005.77 1005.80 1005.91 1005.80 1005.55 1005.35 1004.94 1004.78 1004.76 1004.97 1005.15 1005.05 1005.34 1005.71 1006.13 1006.48 1006.91 1007.61
1006.37 1006.41 1006.24 1006.25 1006.29 1006.27 1006.06 1005.89 1005.60 1005.57 1005.40 1005.14 1005.12 1005.19 1005.30 1005.60 1005.78 1006.06 1006.44 1006.69 1007.29 1008.00
1006.65 1006.64 1006.64 1006.81 1006.76 1006.63 1006.27 1006.07 1005.91 1005.71 1005.79 1005.60 1005.59 1005.66 1005.84 1005.95 1006.07 1006.57 1007.29 1007.39 1007.90 1008.62
1007.38 1007.28 1007.14 1007.20 1007.25 1007.14 1006.85 1006.63 1006.46 1006.26 1006.45 1006.43 1006.50 1006.43 1006.43 1006.57 1006.90 1007.39 1007.91 1008.02 1008.51 1008.98
1008.07 1007.95 1007.83 1007.89 1007.86 1007.83 1007.73 1007.48 1007.42 1007.43 1007.55 1007.42 1007.76 1007.70 1007.71 1007.80 1007.97 1008.36 1009.29 1009.04 1009.35 1009.79
1008.93 1008.85 1008.50 1008.42 1008.50 1008.67 1008.70 1008.63 1008.49 1008.56 1008.80 1008.68 1008.87 1009.01 1008.86 1009.06 1009.26 1009.80 1010.08 1010.25 1010.26 1010.59
1009.48 1009.38 1009.11 1009.24 1009.36 1009.58 1009.72 1009.75 1009.65 1009.78 1009.93 1009.93 1010.34 1010.41 1010.38 1010.47 1010.47 1010.63 1011.01 1011.57 1011.51 1011.54
1009.68 1009.92 1009.90 1010.14 1010.15 1010.40 1010.61 1010.71 1010.90 1011.13 1011.10 1011.12 1011.56 1011.62 1011.80 1011.45 1012.02 1011.46 1012.04 1012.59 1012.42 1012.33
1010.08 1010.52 1010.80 1010.82 1011.03 1011.44 1011.69 1011.72 1011.99 1012.13 1012.17 1012.13 1012.69 1012.82 1012.82 1012.75 1012.84 1012.97 1013.09 1013.10 1013.07 1012.76
1010.67 1011.13 1011.49 1011.76 1012.15 1012.52 1012.43 1012.59 1012.91 1013.09 1013.08 1013.34 1013.63 1013.82 1013.62 1013.57 1013.73 1013.47 1013.52 1013.64 1013.55 1013.60
1011.25 1011.66 1012.15 1012.58 1012.99 1013.38 1013.26 1013.52 1013.71 1013.86 1014.09 1014.34 1014.46 1014.61 1014.53 1014.27 1013.82 1014.10 1013.89 1014.02 1014.68 1014.80
1011.97 1012.45 1012.87 1013.27 1013.86 1013.93 1014.09 1014.46 1014.56 1014.53 1014.74 1015.07 1015.18 1015.31 1015.00 1014.53 1013.96 1013.93 1014.36 1014.60 1014.83 1015.18
Wind_Speed
5 3 4 6 7 7 7 7 8 8 9 11 10 7 8 4 4 4 4 8 5 3
5 7 5 5 6 7 7 7 8 9 10 6 4 4 7 5 6 6 8 9 8 7
10 8 8 6 7 7 7 8 9 10 9 4 4 6 4 6 7 8 6 6 9 10
9 10 10 9 8 8 7 8 8 8 6 2 3 6 7 6 8 8 9 10 11 11
10 10 10 11 11 8 7 7 6 4 3 1 3 4 5 8 9 10 9 9 10 10
12 11 9 9 9 8 7 5 4 6 6 7 6 5 6 7 8 9 9 9 9 10
11 10 7 5 6 6 6 6 8 9 10 10 10 9 9 8 10 11 7 9 8 7
10 9 6 5 6 7 8 9 10 11 13 14 12 9 10 11 12 12 10 8 10 8
9 7 6 6 8 10 11 11 13 13 13 14 11 23 23 15 11 10 13 10 10 10
7 6 6 7 10 10 11 12 14 13 14 15 14 22 21 20 10 11 10 7 8 8
5 5 7 9 11 11 11 13 11 13 13 14 13 19 17 16 10 7 9 8 6 9
5 8 9 12 11 10 12 13 12 11 13 13 12 16 14 9 6 7 8 10 10 11
7 10 12 12 11 10 12 13 10 13 13 16 11 13 11 7 5 8 7 11 9 13
11 13 12 12 10 12 13 12 11 12 11 10 10 9 9 4 7 8 8 7 7 7
Wind_Direction
256 221 237 254 265 272 277 297 311 307 301 290 275 253 231 200 180 148 133 136 115 128
42 21 324 295 286 288 299 307 314 319 308 291 235 202 175 149 137 153 157 145 142 143
23 15 6 356 353 347 341 330 334 329 316 254 178 160 164 149 150 144 136 132 134 130
12 11 7 3 360 349 341 336 330 330 311 270 179 164 149 144 133 128 135 128 128 121
3 6 3 353 343 346 335 333 338 351 328 67 125 137 141 153 139 140 122 119 110 106
351 351 354 353 347 344 343 342 12 38 36 40 43 71 90 104 106 101 113 113 111 109
339 334 343 9 7 12 14 31 43 49 50 55 46 50 61 74 84 84 76 90 101 109
331 320 336 17 45 42 44 48 54 59 54 52 46 39 61 68 73 81 82 69 82 85
326 326 3 43 60 63 60 57 59 58 61 58 54 56 56 56 59 72 72 64 61 66
335 348 43 69 72 66 68 70 65 64 64 63 60 56 55 58 48 55 64 59 59 60
4 67 73 77 71 69 72 73 72 68 64 65 56 56 54 52 52 57 61 71 71 86
83 90 81 78 80 85 87 80 74 69 67 62 57 52 56 69 74 72 70 73 65 75
109 99 90 91 91 90 83 82 78 70 60 55 57 48 46 51 94 91 88 79 75 55
95 94 98 99 95 93 89 85 77 75 61 50 45 50 42 11 113 93 86 89 75 67